Flag for United Kingdom Weather past 2 weeks in Canterbury, England, United Kingdom

Now
40 °F

Chilly.


Feels Like: 33 °F
Forecast: N/A
Wind: 12 mph from Northeast

Location: Manston

Current Time: Dec 28, 2014 at 3:18:39 PM

Latest Report: Dec 28, 2014 at 2:00 PM


Visibility: 22 mi

Pressure: 30.47 "Hg

Humidity: 62%

Dew point: 28 °F

Location of CanterburyLocation

Historic Weather in Canterbury — Graph

°F

Canterbury temperature yesterday

Maximum temperature yesterday: 48 °F (at 1:00 AM)
Minimum temperature yesterday: 37 °F (at 4:00 AM)
Average temperature yesterday: 40 °F

Past Weeks' High & Low Weather Summary

 TemperatureHumidityPressure
High57 °F (Dec 18, 12:00 PM)98% (Dec 17, 6:00 AM)30.48 "Hg (Dec 17, 6:00 AM)
Low31 °F (Dec 14, 3:00 AM)53% (Dec 27, 10:00 PM)29.35 "Hg (Dec 27, 4:00 AM)
Average45 °F85%30.03 "Hg
* Reported Dec 13 4:00 PM — Dec 28 2:00 PM, Canterbury, Weather by CustomWeather, © 2014

Note: Actual official high and low records may vary slightly from our data, if they occured in-between our weather recording intervals... More about our weather records

Advertising

Canterbury weather history for previous 24 hours

 ConditionsComfort  
Time TempWeatherWind HumidityBarometerVisibility
2:00 PM
Dec 28
40 °FChilly.12 mph62%30.47 "Hg22 mi
1:00 PM40 °FChilly.12 mph64%30.46 "Hg25 mi
12:00 PM40 °FChilly.16 mph59%30.44 "Hg19 mi
11:00 AM39 °FChilly.17 mph63%30.41 "Hg22 mi
10:00 AM39 °FChilly.20 mph63%30.37 "Hg15 mi
9:00 AM39 °FChilly.21 mph65%30.32 "Hg10 mi
8:00 AM38 °FChilly.20 mph64%30.27 "Hg16 mi
7:00 AM38 °FChilly.23 mph60%30.20 "Hg17 mi
6:00 AM39 °FChilly.23 mph58%30.15 "Hg15 mi
5:00 AM38 °FChilly.22 mph64%30.12 "Hg15 mi
4:00 AM38 °FChilly.23 mph65%30.07 "Hg11 mi
3:00 AM39 °FChilly.26 mph59%30.03 "Hg18 mi
2:00 AM40 °FChilly.21 mph61%29.98 "Hg18 mi
1:00 AM40 °FQuite cool.20 mph59%29.93 "Hg19 mi
12:00 AM42 °FQuite cool.22 mph69%29.89 "Hg17 mi
11:00 PM
Dec 27
41 °FQuite cool.16 mph68%29.86 "Hg14 mi
10:00 PM41 °FQuite cool.18 mph53%29.83 "Hg28 mi
9:00 PM39 °FRain showers. Overcast.16 mph85%29.80 "Hg11 mi
8:00 PM39 °FChilly.22 mph86%29.76 "Hg10 mi
7:00 PM39 °FChilly.21 mph80%29.74 "Hg19 mi
6:00 PM39 °FChilly.24 mph88%29.72 "Hg12 mi
5:00 PM39 °FChilly.22 mph89%29.71 "Hg11 mi
4:00 PM39 °FChilly.22 mph90%29.70 "Hg9 mi
3:00 PM40 °FChilly.23 mph86%29.68 "Hg16 mi
Weather by CustomWeather, © 2014

See weather overviewHow to use our weather pages